Temp
84 92 98 98 68 77 73 79 87 82 82 90 90 83 79 80 73 61 89 94 90 87 84 84 81 81 81 81 81 80 80 80 80 80 80 80 80 80 80 80 81 81 81 81 81 81 81 81 81
96 100 102 94 68 65 75 85 81 85 89 90 87 86 81 73 86 86 89 97 96 92 88 85 81 81 81 81 81 80 80 80 80 80 80 80 80 80 80 80 81 81 81 81 81 81 81 81 81
92 101 93 85 72 61 73 86 86 90 93 90 87 89 82 80 87 88 94 97 98 94 88 81 80 81 81 81 81 81 81 80 80 80 80 80 80 80 80 81 81 81 82 82 82 81 81 81 81
102 102 97 82 68 78 86 89 92 90 92 92 89 80 87 93 90 93 97 98 93 92 87 81 80 80 81 81 81 81 81 81 81 81 81 81 81 80 80 80 81 81 81 82 81 81 81 80 80
106 97 83 74 83 88 92 94 94 89 90 89 88 79 80 90 94 94 95 98 91 92 88 85 80 81 81 81 81 81 81 81 81 81 81 81 81 80 80 80 80 80 81 81 81 81 80 80 80
94 97 75 68 82 89 92 95 95 91 92 90 86 82 82 93 92 93 96 96 96 93 89 85 81 81 81 81 81 81 80 80 80 80 80 80 80 80 80 80 80 80 80 80 80 80 79 79 79
93 89 72 78 74 78 89 97 92 91 91 88 90 80 86 91 95 97 97 98 98 97 92 86 86 82 80 80 81 81 80 80 80 80 80 80 79 79 79 79 79 79 79 79 79 79 79 78 78
99 93 81 82 73 73 92 95 96 92 89 97 93 81 81 90 96 97 98 97 98 99 97 92 88 87 85 84 80 81 81 80 80 80 80 79 79 79 79 78 78 79 79 79 79 79 78 78 78
105 87 77 82 82 84 95 91 96 99 94 95 94 92 92 95 97 95 93 93 96 95 94 88 94 93 88 88 84 80 80 80 80 80 79 79 81 81 75 81 82 81 79 79 79 78 78 78 78
95 86 84 94 92 88 94 93 93 92 90 90 90 94 95 95 94 91 90 91 93 93 92 92 92 92 93 97 85 85 86 84 85 86 83 86 84 84 87 84 81 77 78 77 79 78 78 78 80
96 87 94 95 95 97 94 91 97 90 85 90 87 90 93 93 92 93 94 93 91 91 90 90 88 88 87 89 88 89 90 87 84 84 84 83 84 82 84 84 80 75 77 80 83 81 83 82 81
90 96 96 96 97 95 93 95 93 87 84 97 95 94 94 92 93 94 93 92 89 90 90 92 89 84 85 86 87 86 87 85 85 84 82 78 80 79 78 81 80 79 81 79 79 79 78 79 80
92 95 96 97 97 97 98 93 92 80 87 99 97 95 94 93 93 93 92 92 91 90 88 88 85 84 84 81 82 84 83 85 85 84 81 81 79 78 78 78 79 78 79 79 79 79 78 78 80
96 95 95 96 96 96 92 93 94 88 93 96 95 94 95 94 86 91 91 89 86 85 86 87 87 85 86 82 84 82 83 83 83 83 83 84 79 77 77 76 76 76 77 77 77 77 76 77 79
97 88 92 93 94 92 94 86 87 95 96 93 93 94 95 91 92 91 92 87 87 85 84 85 84 84 84 81 82 81 82 85 80 81 84 84 82 79 79 76 75 75 75 77 75 76 75 74 77
90 90 82 92 92 93 90 78 91 92 92 92 93 93 92 84 91 94 92 89 86 86 83 84 89 86 83 82 82 82 81 81 80 81 81 84 82 79 77 75 74 76 74 74 73 73 70 71 72
87 79 82 85 93 90 88 81 90 95 93 90 92 93 93 84 69 86 90 90 87 85 83 83 84 84 83 81 81 81 79 81 80 80 80 81 83 83 75 75 74 74 73 72 73 70 69 67 69
77 79 83 80 88 88 85 84 91 93 92 91 92 92 92 79 81 65 67 88 88 86 84 84 84 84 81 80 79 79 80 80 79 79 79 79 80 80 72 72 71 72 72 71 70 69 68 67 69
85 82 80 85 90 85 82 83 87 92 92 90 91 91 90 89 69 67 69 88 88 86 84 84 83 83 81 79 78 77 76 76 77 78 79 75 73 75 70 69 70 70 69 68 69 69 67 67 68
84 80 80 84 89 85 82 81 87 90 89 90 89 90 91 88 74 72 77 87 86 83 83 82 82 82 80 79 76 76 76 77 76 76 74 74 74 73 72 70 69 68 68 66 66 65 64 67 67
82 79 78 76 83 85 82 78 83 86 87 88 89 90 90 87 79 83 86 87 87 84 83 83 77 76 76 74 74 73 72 72 72 71 72 72 72 72 71 70 68 66 67 66 65 65 62 59 62
75 84 81 79 76 69 82 66 76 81 82 83 85 86 88 89 82 85 84 87 78 80 76 79 77 76 76 74 72 69 68 67 68 70 70 68 69 68 69 68 67 65 65 63 62 65 61 60 60
78 84 81 80 75 74 75 71 73 81 77 80 84 86 87 89 90 72 65 78 82 77 86 83 78 78 77 77 74 70 68 68 69 68 65 64 66 67 68 64 64 63 63 63 61 61 60 61 60
86 82 80 80 77 65 73 71 70 73 76 80 83 85 86 88 90 88 84 78 84 88 86 83 79 75 76 75 73 70 68 66 65 64 63 64 64 65 65 66 65 63 63 62 61 60 59 59 59
83 74 64 63 64 61 75 71 69 77 81 82 82 84 87 88 89 83 83 81 85 84 81 81 76 74 74 74 72 70 67 66 64 63 62 60 61 61 62 63 61 62 61 61 60 59 59 59 58
77 74 64 52 56 63 75 66 69 81 83 84 85 85 86 87 88 87 87 85 85 81 79 78 76 74 74 72 70 69 68 66 65 63 61 61 60 60 62 60 61 61 60 59 58 58 59 58 58
75 70 77 65 68 63 70 70 77 81 81 83 83 84 83 84 84 85 86 84 82 81 78 77 76 74 72 71 69 68 66 64 63 62 61 61 60 62 61 61 60 57 56 55 54 55 55 56 57
79 82 66 68 54 53 65 67 66 73 76 79 79 80 82 84 84 84 85 84 83 82 80 79 76 73 72 71 70 68 65 65 63 62 60 58 59 60 59 58 56 54 54 54 53 53 54 54 56
76 73 74 71 66 57 55 63 77 75 77 76 77 80 82 83 84 84 84 84 82 82 81 76 74 73 72 71 68 66 65 64 63 61 60 58 58 58 57 54 53 53 52 53 52 51 52 53 55
80 74 73 61 59 65 62 62 81 80 81 80 78 81 82 81 82 83 84 82 79 78 76 75 72 72 72 70 68 65 64 62 60 58 57 57 56 57 54 53 52 52 52 52 51 51 51 52 55
MSLP
1008.81 1008.59 1007.67 1006.74 1007.93 1007.71 1005.14 1004.48 1004.85 1005.38 1005.97 1006.48 1007.59 1008.50 1009.89 1010.74 1010.59 1012.17 1012.26 1012.04 1013.46 1014.12 1014.56 1015.13 1015.64 1015.90 1016.13 1016.33 1016.38 1016.51 1016.72 1016.77 1016.86 1016.97 1017.08 1017.09 1017.06 1017.08 1017.10 1017.10 1017.04 1017.01 1016.97 1016.96 1017.01 1016.99 1016.89 1016.83 1016.72
1008.11 1007.55 1006.67 1006.65 1008.37 1007.82 1004.86 1004.56 1004.98 1005.26 1005.56 1006.57 1007.63 1008.57 1009.86 1010.89 1011.08 1011.65 1011.96 1011.70 1012.06 1013.07 1014.11 1015.04 1015.65 1015.88 1016.17 1016.38 1016.61 1016.81 1016.92 1017.11 1017.13 1017.17 1017.18 1017.25 1017.24 1017.20 1017.18 1017.19 1017.16 1017.16 1017.11 1017.09 1017.03 1017.03 1016.99 1016.92 1016.82
1008.18 1007.45 1006.39 1006.08 1007.82 1007.11 1004.71 1004.12 1004.55 1005.03 1005.41 1006.20 1007.25 1008.59 1009.96 1010.66 1011.28 1011.59 1012.02 1011.85 1011.77 1012.55 1013.88 1015.06 1015.59 1015.91 1016.21 1016.43 1016.59 1016.85 1017.04 1017.02 1017.20 1017.20 1017.27 1017.31 1017.32 1017.40 1017.36 1017.33 1017.30 1017.21 1017.11 1017.03 1017.01 1016.94 1016.90 1016.81 1016.81
1006.16 1005.30 1005.48 1005.51 1006.95 1005.66 1003.95 1003.87 1004.08 1004.72 1005.45 1006.49 1007.58 1009.15 1010.53 1010.58 1011.05 1011.56 1011.61 1011.70 1012.32 1013.25 1014.43 1015.27 1015.72 1016.16 1016.43 1016.61 1016.74 1016.95 1017.04 1017.10 1017.15 1017.23 1017.28 1017.26 1017.28 1017.29 1017.32 1017.26 1017.22 1017.19 1017.09 1016.98 1016.87 1016.77 1016.75 1016.72 1016.65
1005.03 1005.09 1004.95 1005.65 1003.92 1003.83 1003.97 1003.68 1004.03 1004.83 1005.43 1006.57 1008.13 1009.83 1010.78 1011.46 1011.76 1012.06 1011.98 1011.74 1013.20 1013.30 1014.62 1015.44 1015.95 1016.32 1016.59 1016.78 1016.91 1017.08 1017.10 1017.17 1017.21 1017.23 1017.18 1017.23 1017.19 1017.25 1017.20 1017.15 1017.07 1017.04 1017.01 1016.91 1016.71 1016.60 1016.56 1016.51 1016.44
1004.19 1004.00 1005.94 1005.90 1004.22 1003.87 1003.91 1003.83 1003.91 1004.70 1005.40 1006.63 1007.94 1009.67 1010.89 1011.44 1011.73 1012.11 1012.09 1012.13 1012.32 1013.12 1014.48 1015.39 1015.97 1016.22 1016.43 1016.59 1016.81 1016.96 1017.08 1017.10 1017.17 1017.10 1017.08 1017.04 1016.99 1016.94 1016.85 1016.82 1016.86 1016.94 1016.95 1016.87 1016.76 1016.61 1016.42 1016.28 1016.16
1003.51 1003.39 1004.99 1005.58 1006.21 1004.63 1004.30 1003.95 1004.31 1005.03 1005.51 1007.20 1008.07 1009.52 1010.54 1010.99 1011.41 1011.68 1012.09 1012.24 1012.31 1012.78 1013.83 1014.91 1015.38 1015.91 1016.30 1016.59 1016.76 1016.90 1016.93 1016.94 1016.96 1016.98 1016.93 1016.91 1016.72 1016.28 1016.04 1016.14 1016.46 1016.67 1016.80 1016.78 1016.62 1016.39 1016.23 1016.06 1015.95
1003.08 1002.54 1003.79 1004.83 1005.55 1006.30 1004.53 1004.25 1004.81 1005.58 1006.23 1006.87 1007.75 1008.82 1010.15 1011.03 1011.33 1011.80 1012.17 1012.37 1012.42 1012.52 1012.94 1013.90 1014.71 1015.31 1015.90 1016.30 1016.57 1016.65 1016.69 1016.67 1016.72 1016.71 1016.80 1016.62 1016.20 1016.58 1017.43 1016.52 1016.19 1016.35 1016.40 1016.28 1016.23 1016.22 1015.91 1015.56 1015.33
1002.77 1002.59 1004.42 1003.95 1003.87 1004.20 1004.16 1004.39 1005.40 1006.03 1006.25 1006.72 1007.65 1008.43 1010.01 1010.79 1011.16 1011.71 1012.09 1012.34 1012.33 1013.01 1013.39 1013.78 1013.81 1014.44 1015.13 1015.73 1016.15 1016.26 1016.21 1016.40 1016.51 1016.54 1016.55 1016.22 1015.83 1016.26 1015.50 1016.57 1015.90 1015.61 1016.05 1015.95 1015.59 1015.43 1015.30 1014.90 1014.79
1002.42 1002.26 1002.87 1002.75 1003.24 1003.96 1003.58 1004.43 1005.31 1005.92 1006.71 1007.27 1008.35 1009.23 1009.99 1010.49 1010.93 1011.37 1011.53 1011.66 1012.22 1013.02 1013.81 1014.17 1014.04 1014.45 1014.63 1014.49 1015.33 1015.51 1015.63 1015.86 1015.85 1015.93 1016.07 1015.78 1015.33 1015.09 1015.45 1015.41 1015.22 1015.43 1015.20 1015.17 1015.39 1015.14 1014.78 1014.57 1014.85
1002.26 1002.17 1002.34 1002.80 1003.34 1003.36 1003.49 1004.54 1004.97 1005.96 1007.35 1007.44 1008.33 1008.92 1009.65 1010.03 1010.22 1010.03 1010.50 1011.77 1012.46 1013.54 1014.12 1014.63 1015.04 1015.06 1015.17 1015.14 1015.12 1015.06 1015.23 1015.43 1015.81 1015.95 1016.19 1016.01 1015.87 1015.61 1015.46 1015.29 1015.54 1015.74 1015.69 1015.38 1014.67 1014.65 1014.25 1014.02 1014.33
1002.75 1002.48 1002.89 1002.81 1003.31 1003.51 1003.56 1004.40 1004.71 1006.82 1008.56 1006.92 1007.51 1008.57 1008.76 1008.65 1008.90 1008.65 1010.17 1011.72 1013.04 1013.84 1014.04 1014.58 1015.24 1015.69 1015.73 1015.63 1015.49 1015.54 1015.68 1015.84 1015.89 1016.06 1016.32 1016.45 1016.46 1016.24 1016.24 1016.11 1015.91 1015.64 1015.26 1015.05 1014.86 1014.73 1014.29 1014.06 1014.27
1003.02 1002.51 1002.99 1003.37 1003.66 1003.55 1003.61 1004.25 1005.51 1007.62 1007.60 1006.79 1007.16 1007.83 1007.73 1007.75 1007.87 1008.91 1009.85 1011.58 1012.73 1013.49 1014.38 1015.12 1015.67 1015.98 1015.95 1016.14 1016.15 1016.18 1016.20 1016.05 1016.07 1016.07 1016.35 1016.59 1016.70 1016.69 1016.60 1016.43 1016.22 1015.82 1015.55 1015.41 1015.33 1015.07 1014.77 1014.35 1013.91
1002.83 1002.97 1003.19 1003.47 1003.57 1003.67 1004.20 1004.15 1004.93 1006.00 1006.58 1006.51 1006.65 1007.02 1006.91 1007.29 1009.51 1009.42 1009.55 1011.42 1012.73 1013.60 1014.58 1015.23 1015.78 1015.89 1016.11 1016.33 1016.33 1016.33 1016.23 1016.28 1016.21 1016.17 1016.17 1016.29 1016.57 1016.66 1016.58 1016.66 1016.36 1015.94 1015.84 1015.77 1015.67 1015.44 1015.20 1014.75 1014.03
1003.33 1003.51 1003.28 1003.39 1003.66 1004.14 1004.61 1004.67 1004.70 1005.62 1006.15 1006.19 1006.45 1006.77 1007.18 1007.90 1008.61 1008.48 1010.13 1011.65 1012.88 1013.65 1014.51 1015.24 1015.64 1015.97 1016.26 1016.55 1016.57 1016.55 1016.43 1016.45 1016.60 1016.34 1016.01 1016.03 1016.12 1016.29 1016.33 1016.48 1016.46 1016.13 1015.99 1015.81 1015.82 1015.55 1015.09 1015.13 1014.89
1003.49 1003.24 1002.44 1002.72 1003.67 1004.11 1005.04 1004.77 1004.16 1005.50 1005.83 1006.06 1006.06 1006.33 1007.23 1008.28 1010.64 1009.22 1010.66 1012.09 1013.83 1014.08 1014.55 1015.11 1015.30 1015.78 1016.21 1016.45 1016.55 1016.58 1016.69 1016.52 1016.49 1016.21 1015.99 1015.79 1015.89 1016.09 1016.24 1016.30 1016.38 1016.11 1015.99 1015.89 1015.96 1015.89 1015.84 1015.56 1015.26
1003.16 1002.48 1002.47 1002.73 1003.44 1004.03 1004.55 1004.69 1004.79 1005.21 1005.45 1005.85 1005.94 1006.03 1006.96 1009.69 1012.41 1011.86 1011.69 1012.34 1013.79 1014.88 1014.65 1015.06 1015.67 1015.87 1016.28 1016.43 1016.55 1016.52 1016.44 1016.24 1016.07 1015.91 1015.84 1015.72 1015.71 1015.78 1016.05 1016.18 1016.23 1016.23 1015.88 1015.86 1015.98 1016.03 1016.05 1016.02 1015.65
1003.18 1002.93 1002.79 1003.27 1003.60 1004.29 1004.61 1004.56 1004.32 1004.34 1005.04 1005.42 1005.85 1006.15 1006.79 1008.96 1011.16 1013.07 1015.71 1012.94 1013.58 1014.73 1014.81 1015.08 1015.65 1016.03 1016.37 1016.55 1016.52 1016.30 1016.17 1016.04 1016.14 1016.02 1015.88 1015.76 1015.65 1015.64 1016.19 1016.28 1016.51 1016.53 1016.44 1015.94 1015.84 1015.96 1015.90 1015.92 1015.81
1004.16 1003.93 1003.83 1003.66 1003.74 1004.45 1004.97 1004.97 1004.81 1004.43 1004.83 1005.17 1005.68 1006.22 1006.92 1008.37 1012.03 1014.00 1016.56 1013.35 1013.09 1013.90 1014.40 1014.84 1015.58 1016.12 1016.31 1016.54 1016.48 1016.48 1016.48 1016.37 1016.40 1016.07 1015.72 1016.01 1016.15 1016.16 1016.40 1016.39 1016.43 1016.77 1016.78 1016.54 1016.36 1016.07 1015.83 1015.53 1015.52
1004.78 1004.58 1004.34 1004.39 1004.41 1004.81 1005.02 1004.88 1004.62 1004.57 1004.99 1005.80 1006.31 1006.57 1006.91 1008.60 1010.88 1012.61 1013.55 1012.28 1012.51 1012.85 1013.29 1014.04 1015.00 1015.63 1016.12 1016.53 1016.91 1016.93 1016.87 1016.67 1016.47 1016.22 1016.37 1016.45 1016.34 1016.45 1016.39 1016.54 1016.71 1016.86 1016.88 1016.62 1016.47 1016.34 1016.03 1015.80 1015.62
1005.18 1004.85 1005.26 1005.82 1005.66 1005.41 1004.93 1004.35 1003.87 1005.23 1006.08 1006.65 1007.10 1007.15 1007.42 1008.31 1010.05 1010.85 1011.85 1012.22 1012.14 1012.23 1013.42 1013.51 1014.81 1015.76 1016.52 1017.02 1017.23 1017.33 1017.35 1017.17 1016.83 1016.88 1016.66 1016.53 1016.61 1016.55 1016.52 1016.54 1016.56 1016.58 1016.48 1016.36 1016.26 1016.35 1016.33 1016.11 1015.83
1005.86 1006.31 1006.48 1006.29 1006.09 1005.50 1005.11 1004.63 1004.84 1005.79 1006.46 1007.18 1007.66 1007.98 1008.10 1008.25 1009.46 1010.57 1011.59 1011.91 1013.14 1013.44 1014.84 1014.33 1015.27 1015.87 1016.45 1017.19 1017.58 1017.81 1017.80 1017.60 1017.66 1017.37 1017.30 1017.21 1016.98 1016.77 1016.34 1016.05 1015.88 1015.97 1016.36 1016.52 1016.63 1016.59 1016.68 1016.44 1015.94
1006.69 1006.92 1006.59 1006.41 1006.18 1005.89 1005.06 1005.16 1005.42 1006.05 1006.65 1007.26 1007.75 1007.83 1008.36 1008.90 1009.22 1011.30 1012.77 1013.31 1013.28 1012.92 1013.29 1014.49 1015.20 1015.82 1016.49 1016.95 1017.33 1017.57 1017.70 1017.75 1017.58 1017.60 1017.49 1017.52 1017.24 1016.78 1016.40 1016.53 1016.39 1016.51 1016.60 1016.53 1016.48 1016.44 1016.40 1016.45 1016.21
1007.09 1006.70 1006.34 1005.92 1005.64 1005.49 1005.43 1005.94 1005.89 1006.60 1007.43 1007.72 1008.04 1008.61 1008.91 1009.00 1009.36 1010.15 1012.27 1013.43 1013.47 1013.22 1013.69 1014.45 1015.14 1015.92 1016.43 1016.84 1017.15 1017.38 1017.49 1017.60 1017.53 1017.63 1017.63 1017.41 1017.33 1016.95 1016.60 1016.25 1016.23 1016.28 1016.35 1016.35 1016.35 1016.26 1016.25 1016.14 1016.05
1006.99 1007.30 1006.59 1005.92 1005.51 1005.45 1006.01 1006.10 1006.68 1007.20 1007.68 1008.00 1008.49 1008.86 1009.11 1009.41 1009.66 1010.72 1011.67 1012.18 1012.86 1013.31 1013.85 1014.56 1015.31 1015.92 1016.36 1016.69 1016.91 1017.11 1017.25 1017.31 1017.49 1017.55 1017.54 1017.64 1017.45 1017.08 1016.65 1016.44 1016.25 1016.19 1016.28 1016.21 1016.17 1016.20 1016.14 1015.98 1015.76
1007.78 1008.11 1008.12 1008.10 1007.50 1006.63 1006.13 1005.83 1007.31 1007.88 1008.39 1008.67 1009.10 1009.49 1009.70 1009.65 1010.08 1010.68 1011.28 1012.02 1012.86 1013.56 1014.38 1015.06 1015.58 1015.91 1016.20 1016.58 1016.82 1016.87 1016.99 1017.32 1017.43 1017.47 1017.52 1017.44 1017.35 1017.11 1016.57 1016.46 1016.21 1016.12 1016.23 1016.28 1016.23 1016.17 1015.93 1015.73 1015.48
1008.22 1008.47 1009.14 1009.42 1008.78 1007.97 1006.54 1007.11 1007.92 1008.12 1008.23 1008.71 1009.09 1009.30 1009.72 1010.08 1010.64 1011.28 1011.75 1012.41 1013.20 1013.88 1014.55 1015.12 1015.42 1015.84 1016.19 1016.45 1016.63 1016.83 1017.14 1017.32 1017.35 1017.36 1017.36 1017.12 1017.00 1016.83 1016.52 1016.25 1016.18 1016.19 1016.27 1016.23 1016.23 1016.12 1015.77 1015.53 1015.24
1008.76 1009.11 1009.17 1009.37 1009.16 1008.54 1007.56 1007.41 1007.90 1008.25 1008.65 1009.11 1009.54 1009.83 1010.00 1010.04 1010.79 1011.42 1011.85 1012.41 1013.10 1013.79 1014.38 1014.84 1015.37 1015.80 1016.13 1016.31 1016.44 1016.71 1016.93 1017.12 1017.17 1017.13 1016.99 1016.98 1016.91 1016.64 1016.45 1016.31 1016.35 1016.27 1016.18 1016.00 1015.92 1015.66 1015.43 1015.24 1014.76
1008.64 1008.72 1009.07 1009.60 1010.21 1009.64 1009.07 1008.34 1008.45 1008.93 1009.18 1009.55 1010.06 1010.34 1010.32 1010.48 1010.97 1011.39 1011.89 1012.46 1013.08 1013.71 1014.34 1015.02 1015.52 1015.87 1016.13 1016.21 1016.42 1016.66 1016.91 1016.91 1016.90 1016.96 1016.91 1016.90 1016.74 1016.50 1016.30 1016.30 1016.14 1015.92 1015.78 1015.69 1015.61 1015.41 1015.22 1014.89 1014.30
1008.82 1009.15 1009.59 1010.15 1010.52 1010.08 1009.91 1009.02 1008.73 1008.76 1009.02 1009.38 1010.20 1010.48 1010.94 1011.56 1011.80 1011.95 1012.22 1012.67 1013.34 1014.02 1014.72 1015.28 1015.76 1016.00 1016.08 1016.18 1016.39 1016.67 1016.77 1016.91 1017.09 1017.17 1017.07 1016.83 1016.55 1016.33 1016.14 1016.02 1015.77 1015.53 1015.32 1015.23 1015.20 1014.99 1014.80 1014.51 1013.86
Wind_Speed
7 10 9 2 6 3 3 20 17 14 13 13 17 21 22 10 7 8 4 11 17 15 14 14 12 12 11 9 9 8 6 5 5 5 5 5 4 4 4 3 4 4 3 3 3 3 3 3 3
8 11 9 6 5 7 8 20 16 10 11 15 15 17 21 17 18 11 9 6 14 17 14 13 12 11 10 9 7 6 5 4 3 3 3 3 2 1 1 1 1 1 1 2 2 3 4 4 4
10 10 7 8 4 6 6 15 13 14 13 12 18 17 10 16 14 10 10 8 10 16 17 14 13 10 10 9 7 6 4 3 2 1 1 1 1 2 3 3 3 3 3 3 4 4 5 5 6
7 6 7 6 17 18 15 14 13 17 12 21 15 15 16 16 17 12 8 10 9 17 15 14 12 8 7 6 6 5 4 3 2 1 2 2 3 3 4 5 5 6 6 5 6 6 7 7 7
10 8 3 13 11 16 12 10 13 16 11 22 20 18 17 14 13 11 7 9 15 18 15 12 11 8 7 5 4 3 2 2 3 4 4 5 5 5 6 7 7 7 8 8 8 8 8 8 9
11 1 9 16 11 14 11 9 14 13 17 21 21 18 14 13 12 10 7 7 11 17 14 11 10 9 8 8 6 5 5 5 6 6 7 7 8 8 8 9 9 9 10 10 10 10 10 10 11
16 4 11 5 9 14 7 14 16 13 12 22 22 17 12 14 10 14 11 8 10 14 15 13 12 11 11 8 7 6 5 6 8 8 8 8 10 12 12 12 11 10 10 11 12 12 12 12 13
9 11 13 14 14 10 0 15 16 14 11 15 11 15 13 12 12 12 10 8 7 9 11 17 13 13 11 10 11 9 9 9 9 10 9 12 14 11 16 13 10 12 11 12 13 14 14 15 15
14 6 6 12 15 10 7 17 13 10 9 15 14 22 18 16 15 13 11 10 10 9 6 6 10 12 10 10 10 11 13 11 11 10 11 11 8 5 18 16 9 6 10 14 16 16 17 18 19
10 5 9 5 20 8 10 12 10 12 13 15 15 19 17 14 13 11 12 7 13 11 12 9 9 6 4 5 10 11 9 9 5 6 6 4 8 6 6 3 11 1 10 21 18 17 18 17 8
8 6 9 7 13 9 13 13 6 12 8 9 17 17 16 14 13 14 14 11 13 9 9 8 6 6 8 4 4 3 4 3 4 7 4 5 6 5 7 6 1 3 12 8 5 7 8 9 4
6 2 7 10 9 4 7 12 7 19 8 13 20 16 15 17 13 11 12 12 13 8 8 11 8 6 4 5 5 5 3 4 3 4 6 5 5 5 5 4 5 5 6 6 5 4 6 10 9
7 6 4 3 5 10 5 1 5 22 15 9 19 17 17 17 14 15 11 11 11 10 12 9 8 4 5 7 5 3 4 3 4 4 6 4 4 4 5 5 5 4 4 5 7 9 7 8 9
5 5 2 1 8 5 8 5 8 11 22 7 15 14 16 14 3 15 15 11 11 10 9 10 8 4 6 4 3 3 2 4 4 3 3 2 2 2 3 5 5 4 4 5 6 5 6 7 9
9 8 10 9 5 6 2 12 8 12 8 10 9 10 13 8 19 16 14 14 12 9 9 6 8 7 4 7 5 4 4 5 5 5 3 3 2 1 1 3 4 4 4 5 6 7 5 7 10
13 15 13 13 7 6 2 11 10 18 9 8 13 14 12 23 14 12 16 14 11 10 7 5 7 7 5 5 2 3 4 2 4 4 4 4 4 5 4 3 3 3 4 4 4 4 5 5 7
15 12 12 9 8 1 8 7 8 10 10 9 10 13 11 15 14 14 16 15 12 9 9 7 3 5 4 5 3 4 7 4 4 4 3 5 2 4 3 3 4 6 3 3 4 3 4 5 8
13 8 8 1 2 7 7 12 12 14 12 9 9 12 10 14 18 32 22 9 11 9 6 4 1 2 4 3 4 5 3 3 4 5 6 8 6 6 6 5 9 7 6 4 4 3 2 2 6
10 10 9 9 1 2 8 12 15 6 8 4 10 9 12 5 27 27 20 12 12 8 7 4 2 1 1 2 4 5 5 6 6 6 6 7 3 5 3 1 2 6 7 8 9 7 5 3 5
9 11 10 12 12 6 11 15 14 11 4 7 11 11 9 11 22 22 27 12 11 10 8 7 6 4 3 5 6 5 4 5 6 7 5 3 5 6 6 5 3 4 7 7 7 9 7 8 5
11 11 9 12 15 14 18 19 20 13 7 7 7 10 8 9 15 13 12 8 8 8 2 5 11 10 7 9 5 6 7 7 6 8 8 8 11 8 6 6 5 8 7 7 5 7 9 6 6
8 12 11 13 12 12 15 11 13 9 3 4 0 4 9 11 12 9 3 4 10 15 5 11 9 7 6 6 4 5 5 7 6 8 8 9 11 13 14 12 11 4 5 5 5 6 7 9 9
11 12 14 12 12 13 17 7 8 7 9 8 10 1 3 6 10 18 21 5 6 6 0 6 7 5 3 1 2 3 5 6 6 8 9 11 10 10 9 9 6 5 3 4 5 7 7 7 8
10 13 19 17 14 11 3 3 12 9 7 7 9 6 9 9 7 11 13 13 6 5 5 5 5 7 5 4 4 5 6 7 7 7 7 6 6 7 6 4 3 3 3 4 4 6 7 8 8
12 12 10 2 4 4 7 7 9 10 8 9 8 9 3 2 3 10 3 8 7 8 10 7 8 6 5 4 5 5 6 6 6 8 7 8 8 8 9 7 6 5 6 6 7 6 7 8 8
13 6 7 8 11 15 16 3 9 12 10 8 4 6 10 8 11 11 10 8 7 10 10 8 7 6 6 7 6 6 5 5 6 6 7 7 7 9 9 9 5 6 7 8 8 7 7 9 9
10 7 11 7 15 11 11 17 12 5 8 6 1 3 3 5 5 6 6 7 6 5 5 5 5 6 7 7 6 5 5 7 7 8 7 7 7 8 10 10 7 4 5 6 7 7 9 9 10
5 4 4 5 6 10 13 7 8 9 10 10 12 12 13 4 1 4 4 2 1 4 3 4 8 8 8 9 7 7 7 7 8 8 7 7 9 9 9 8 4 6 8 8 8 7 8 10 9
4 9 5 1 5 8 8 2 10 6 5 9 11 11 10 8 6 6 8 6 6 6 9 9 9 10 10 8 8 8 7 9 8 7 8 7 9 11 7 5 7 10 8 8 7 9 9 11 11
7 6 6 4 8 10 9 9 6 4 6 5 3 7 7 7 7 7 8 7 7 7 8 8 8 10 10 8 8 7 9 8 10 10 10 9 9 9 6 8 10 9 8 8 8 9 9 11 9
Wind_Direction
255 230 240 0 29 338 23 69 57 47 66 58 51 78 73 85 81 127 178 127 155 122 128 107 103 101 103 110 116 122 128 121 112 102 92 88 87 85 82 79 87 88 82 72 52 48 52 46 53
300 297 231 114 355 329 76 75 69 63 127 106 92 72 81 84 80 100 108 91 121 123 121 120 115 116 120 123 128 127 118 104 95 80 79 74 71 71 64 30 28 30 27 7 2 353 345 337 332
263 252 272 131 159 184 45 88 98 92 56 93 94 69 59 85 109 106 125 121 129 118 113 128 132 132 133 136 134 134 135 130 137 125 98 64 7 326 317 312 311 306 302 304 307 308 307 309 314
278 271 219 286 203 222 73 78 59 105 104 81 92 76 60 64 87 100 141 142 71 106 112 123 122 129 138 137 140 154 166 177 193 229 263 275 273 275 286 290 292 291 292 290 285 282 283 285 287
275 243 323 313 104 80 79 60 72 74 80 99 95 92 91 92 98 96 63 45 105 102 114 116 119 134 147 160 168 193 217 253 272 275 278 281 277 273 273 278 276 275 279 278 276 279 281 278 273
275 250 71 255 63 82 82 64 73 102 98 114 94 90 105 126 117 115 116 102 69 105 109 135 137 150 162 173 183 199 222 242 259 268 271 270 275 268 259 258 262 267 271 272 273 273 273 271 267
269 219 188 138 34 359 59 62 63 76 82 65 109 106 128 110 137 123 130 121 127 121 132 145 158 172 171 175 183 201 224 243 249 254 260 264 258 251 244 243 249 257 264 270 269 268 268 266 263
306 301 157 158 84 299 172 83 75 77 55 111 116 143 120 121 120 131 112 110 105 123 126 155 162 167 165 172 189 195 219 229 246 250 254 256 257 266 283 250 251 261 258 257 260 262 261 260 257
274 315 126 130 143 153 172 98 96 124 134 62 109 99 121 135 134 125 134 158 121 73 101 104 148 145 152 153 182 193 214 219 230 242 242 263 257 201 251 245 225 241 259 260 257 255 258 253 250
275 290 236 65 111 196 138 108 132 132 108 104 98 112 130 139 131 151 186 134 103 98 57 45 47 41 135 103 155 202 194 193 184 45 6 326 330 4 5 41 150 114 270 267 264 260 260 265 269
284 23 25 79 28 347 100 100 169 82 102 122 133 137 144 153 169 181 125 86 87 94 125 109 73 33 25 11 335 19 45 57 107 92 11 19 339 2 7 1 146 224 239 258 272 244 256 263 299
290 18 351 49 30 356 308 137 200 98 274 213 142 151 160 180 183 119 119 108 98 123 148 102 96 75 42 333 34 39 35 40 17 73 48 28 351 11 359 356 344 349 346 335 357 340 353 350 342
267 286 107 50 323 297 64 151 129 130 214 208 138 162 182 197 169 111 93 119 130 138 89 90 80 77 29 40 26 19 15 26 322 61 82 31 17 9 352 337 322 347 311 353 353 336 328 328 318
6 343 265 236 256 353 326 275 195 170 208 159 147 177 204 198 194 135 131 139 101 102 102 120 120 104 113 106 2 331 39 356 356 351 76 132 77 29 342 334 324 334 33 0 329 320 316 321 313
294 269 227 219 240 289 89 289 205 344 127 167 178 218 233 194 170 135 145 130 128 114 104 108 121 107 41 49 3 335 6 358 350 319 337 349 179 298 359 300 321 342 4 329 342 320 319 358 353
256 251 260 182 140 165 181 296 282 203 125 240 207 221 220 11 220 135 122 120 116 128 107 64 52 105 83 98 335 359 324 337 268 291 293 306 22 25 320 322 314 350 346 338 319 348 359 346 343
229 271 215 167 147 216 192 288 104 175 198 228 267 247 231 141 75 258 119 118 135 129 142 125 80 67 55 1 343 297 277 258 284 301 349 332 325 281 351 323 330 328 314 307 302 13 350 343 325
344 244 23 313 79 138 260 302 293 193 210 227 267 274 266 127 194 79 337 159 132 132 118 107 125 84 56 278 260 258 283 299 354 332 326 325 311 357 40 17 351 331 315 318 310 315 251 253 297
335 325 306 299 85 11 285 292 300 307 247 324 296 275 282 156 110 120 218 197 134 136 135 154 42 339 264 292 321 307 343 339 323 294 309 24 43 36 48 352 338 333 328 331 325 308 287 297 310
321 296 310 336 5 332 280 274 283 287 69 353 327 303 273 141 133 161 205 152 161 159 161 161 193 213 26 354 6 337 313 311 334 314 37 33 43 14 348 349 320 313 303 292 299 291 300 295 294
305 0 10 328 312 293 265 267 242 81 52 18 329 328 336 167 142 157 179 182 189 171 102 140 76 59 45 34 356 3 349 335 322 356 329 0 350 339 332 323 300 286 276 280 305 324 313 290 274
309 13 326 304 301 294 334 299 97 109 108 144 122 305 309 311 140 181 336 191 53 55 186 77 81 70 76 61 354 12 309 331 339 329 335 336 338 323 309 300 289 328 6 13 351 336 326 323 307
324 325 283 269 270 281 268 244 142 166 93 42 32 7 249 280 316 116 154 191 79 126 50 78 99 104 86 359 328 329 320 316 323 325 326 326 315 308 332 36 36 25 359 336 318 311 317 305 302
288 300 310 276 249 243 153 306 96 90 57 41 64 27 1 342 318 113 100 55 298 88 73 75 53 59 34 17 348 331 326 323 321 329 314 315 322 314 312 336 346 302 282 273 282 294 290 284 290
358 358 321 281 278 189 194 258 83 107 79 59 41 18 22 304 322 80 134 172 71 42 48 22 35 20 1 350 316 339 321 341 316 320 319 327 314 314 308 323 309 325 333 316 298 293 291 284 276
302 341 334 339 318 324 310 251 110 90 85 81 54 45 344 352 3 7 15 40 19 37 28 11 356 326 351 5 347 328 6 338 327 335 321 307 302 294 312 303 320 326 345 338 332 317 296 291 292
352 338 345 299 270 255 285 91 96 122 137 155 120 349 281 276 20 335 327 51 34 12 29 342 316 10 5 350 336 12 2 338 321 314 304 304 304 303 301 315 318 355 323 316 311 303 294 291 284
281 343 332 224 300 322 334 351 77 41 38 16 356 347 328 117 122 309 304 321 55 33 336 1 22 2 350 337 347 352 350 337 312 307 309 325 310 305 309 314 338 316 304 296 298 291 290 299 288
302 311 255 347 288 298 298 46 83 54 15 14 7 340 349 18 6 358 13 7 33 17 357 22 4 350 336 336 350 349 337 314 318 321 322 313 312 318 319 318 299 292 288 282 281 279 290 284 277
314 312 346 314 301 308 322 302 58 20 32 20 72 352 27 359 328 320 324 11 25 20 23 3 5 338 331 341 345 334 324 353 347 333 321 311 299 301 302 307 297 283 275 272 269 278 281 284 283